AII-BRAVO (48270 NORAD) Tracking and Keplerian Element Data

This shows tracking and keplerian element data for the satellite.

Feedback or suggestion? Click here.




ElementValue
Catalog48270
NameAII-BRAVO
Epoch Orbit1360
Epoch Day210.7409425
Epoch Year2021
RAAN284.4181
Inclination97.7842
Eccentricity0.0005051
Argument of Perigee64.2476
Mean Anonmoly295.9261
Mean Motion14.85722537
Decay Rate3.15E-06
L11 48270U 21034C 21210.74094250 .00000315 00000-0 42429-4 0 9992
L22 48270 97.7842 284.4181 0005051 64.2476 295.9261 14.85722537 13606

Live tracking and technical data element details for AII-BRAVO (NORAD 48270). AII-BRAVO can be tracked NOW for your location showing map with azimuth and elevation plus other details from your city location.

Track the satellite on the map from your city or location and see movement details for azimuth, elevation, latitude, longitude, range, height, and movement on the map or in text.







IsCatalogInMostPopularTable: catalog: 48270, numindb: 30
Update: records affected: 1



GetName: 48270 AII-BRAVO

Hit Count: updated at: Sat, 31 Jul 2021 14:20:20 GMT